CW7615 Weather Reports


Display with metric or nautical units.
time (UTC)temp
F
wind
direction
speed
MPH
gust
MPH
rain 1hr
in
rain 24hr
in
rain mn
in
humidity
%
barometer
mb
20260903204052 78 329 0.0 0.0 0.00 0.00 0.00 82 1022.0
20260903203552 78 329 0.0 0.0 0.00 0.00 0.00 82 1021.9
20260903203104 79 329 0.0 0.0 0.00 0.00 0.00 82 1021.8
20260903202553 79 329 0.0 0.0 0.00 0.00 0.00 81 1021.7
20260903202057 79 329 0.0 0.0 0.00 0.00 0.00 81 1021.4
20260903201553 79 329 0.0 0.0 0.00 0.00 0.00 80 1021.4
20260903201052 80 329 0.0 1.0 0.00 0.00 0.00 80 1021.3
20260903200554 80 329 0.0 1.0 0.00 0.00 0.00 79 1021.2
20260903200052 80 329 0.0 0.0 0.00 0.00 0.00 78 1021.3
20260903195551 80 329 0.0 2.0 0.00 0.00 0.00 76 1021.2
20260903195051 80 328 0.0 4.0 0.00 0.00 0.00 71 1021.1
20260903194555 81 327 1.0 4.0 0.00 0.00 0.00 73 1021.0
20260903194051 81 360 0.0 2.0 0.00 0.00 0.00 77 1020.8
20260903193551 81 360 0.0 4.0 0.00 0.00 0.00 77 1020.8
20260903193051 81 360 1.0 4.0 0.00 0.00 0.00 69 1020.7
20260903192550 81 5 1.0 5.0 0.00 0.00 0.00 70 1020.6
20260903192050 81 9 1.0 6.0 0.00 0.00 0.00 71 1020.4
20260903191550 81 9 3.0 6.0 0.00 0.00 0.00 72 1020.4
20260903191051 80 344 2.0 5.0 0.00 0.00 0.00 73 1020.4
20260903190555 80 355 1.0 5.0 0.00 0.00 0.00 76 1020.4
20260903190050 81 288 1.0 4.0 0.00 0.00 0.00 78 1020.5
20260903185551 81 138 0.0 0.0 0.00 0.00 0.00 79 1020.4
20260903185051 81 138 0.0 0.0 0.00 0.00 0.00 79 1020.4
20260903184550 81 138 0.0 0.0 0.00 0.00 0.00 79 1020.5
20260903184050 81 138 0.0 0.0 0.00 0.00 0.00 79 1020.6
20260903183549 82 138 0.0 0.0 0.00 0.00 0.00 78 1020.6
20260903183049 82 138 0.0 0.0 0.00 0.00 0.00 78 1020.6
20260903182549 82 138 0.0 0.0 0.00 0.00 0.00 78 1020.6
20260903182049 82 138 0.0 0.0 0.00 0.00 0.00 77 1020.6
20260903181549 82 138 0.0 0.0 0.00 0.00 0.00 77 1020.7
20260903181048 82 138 0.0 0.0 0.00 0.00 0.00 77 1020.6
20260903180549 82 138 0.0 0.0 0.00 0.00 0.00 77 1020.6
20260903180050 82 138 0.0 0.0 0.00 0.00 0.00 77 1020.6
20260903175549 83 137 0.0 0.0 0.00 0.00 0.00 76 1020.7
20260903175048 83 137 0.0 0.0 0.00 0.00 0.00 77 1020.6
20260903174548 83 137 0.0 0.0 0.00 0.00 0.00 77 1020.7
20260903174048 82 137 0.0 0.0 0.00 0.00 0.00 77 1020.7
20260903173552 82 137 0.0 0.0 0.00 0.00 0.00 77 1020.7
20260903173047 82 137 0.0 0.0 0.00 0.00 0.00 77 1020.8
20260903172548 82 137 0.0 0.0 0.00 0.00 0.00 77 1020.8
20260903172047 82 137 0.0 0.0 0.00 0.00 0.00 77 1020.8
20260903171551 82 137 0.0 0.0 0.00 0.00 0.00 77 1020.8
20260903171047 82 137 0.0 0.0 0.00 0.00 0.00 78 1020.9
20260903170547 82 137 0.0 3.0 0.00 0.00 0.00 78 1020.9
20260903170048 82 137 0.0 3.0 0.00 0.00 0.00 78 1020.9
20260903165546 82 130 1.0 4.0 0.00 0.00 0.00 78 1021.0
20260903165050 82 124 2.0 4.0 0.00 0.00 0.00 78 1020.9
20260903164547 82 130 1.0 7.0 0.00 0.00 0.00 78 1020.9
20260903164046 83 123 3.0 7.0 0.00 0.00 0.00 77 1020.9
20260903163546 83 155 1.0 7.0 0.00 0.00 0.00 77 1021.0
20260903163046 82 144 2.0 7.0 0.00 0.00 0.00 77 1021.0
20260903162545 82 113 3.0 7.0 0.00 0.00 0.00 77 1021.1
20260903162045 82 152 2.0 9.0 0.00 0.00 0.00 77 1021.0
20260903161545 82 117 4.0 9.0 0.00 0.00 0.00 77 1021.0
20260903161045 83 126 6.0 9.0 0.00 0.00 0.00 76 1021.1
20260903160544 83 154 5.0 8.0 0.00 0.00 0.00 75 1021.2
20260903160046 83 120 3.0 7.0 0.00 0.00 0.00 74 1021.1
20260903155548 84 110 4.0 8.0 0.00 0.00 0.00 74 1021.1
20260903155043 83 171 2.0 8.0 0.00 0.00 0.00 74 1021.1
20260903154644 83 136 3.0 8.0 0.00 0.00 0.00 74 1021.2
20260903154043 83 150 3.0 9.0 0.00 0.00 0.00 75 1021.3
20260903153543 82 159 3.0 10.0 0.00 0.00 0.00 75 1021.4
20260903153043 83 112 5.0 10.0 0.00 0.00 0.00 75 1021.4
20260903152543 83 102 5.0 10.0 0.00 0.00 0.00 74 1021.5
20260903152042 83 117 3.0 8.0 0.00 0.00 0.00 74 1021.4
20260903151544 83 138 3.0 9.0 0.00 0.00 0.00 74 1021.3
20260903151042 83 138 4.0 9.0 0.00 0.00 0.00 74 1021.4
20260903150542 84 123 5.0 9.0 0.00 0.00 0.00 73 1021.4
20260903150103 83 194 4.0 9.0 0.00 0.00 0.00 73 1021.4
20260903145541 83 180 3.0 9.0 0.00 0.00 0.00 73 1021.5
20260903145041 83 141 4.0 9.0 0.00 0.00 0.00 74 1021.5
20260903144541 83 163 4.0 11.0 0.00 0.00 0.00 74 1021.6
20260903144041 83 117 5.0 11.0 0.00 0.00 0.00 74 1021.6
20260903143541 83 109 4.0 11.0 0.00 0.00 0.00 74 1021.6
20260903143040 83 155 4.0 11.0 0.00 0.00 0.00 74 1021.6
20260903142540 83 109 4.0 12.0 0.00 0.00 0.00 74 1021.7
20260903142039 83 128 5.0 10.0 0.00 0.00 0.00 74 1021.6
20260903141541 83 126 4.0 10.0 0.00 0.00 0.00 74 1021.7
20260903141038 83 120 6.0 10.0 0.00 0.00 0.00 74 1021.8
20260903140538 83 122 5.0 9.0 0.00 0.00 0.00 74 1021.7
20260903140041 83 148 5.0 10.0 0.00 0.00 0.00 74 1021.8
20260903135538 82 167 4.0 10.0 0.00 0.00 0.00 75 1021.7
20260903135037 82 113 5.0 11.0 0.00 0.00 0.00 75 1021.9
20260903134547 82 159 6.0 12.0 0.00 0.00 0.00 75 1021.9
20260903134038 82 113 6.0 12.0 0.00 0.00 0.00 75 1021.9
20260903133540 82 144 5.0 11.0 0.00 0.00 0.00 75 1022.0
20260903133039 82 167 5.0 11.0 0.00 0.00 0.00 75 1021.9
20260903132537 81 163 4.0 11.0 0.00 0.00 0.00 76 1022.0
20260903132036 81 136 7.0 13.0 0.00 0.00 0.00 75 1022.0
20260903131537 82 125 6.0 13.0 0.00 0.00 0.00 75 1022.1
20260903131039 82 119 2.0 9.0 0.00 0.00 0.00 75 1022.1
20260903130538 82 109 4.0 9.0 0.00 0.00 0.00 75 1022.1
20260903130036 82 111 3.0 9.0 0.00 0.00 0.00 76 1022.0
20260903125536 82 128 4.0 11.0 0.00 0.00 0.00 76 1022.0
20260903125034 82 142 4.0 13.0 0.00 0.00 0.00 76 1022.1
20260903124548 82 137 5.0 13.0 0.00 0.00 0.00 75 1022.1
20260903124034 82 105 3.0 8.0 0.00 0.00 0.00 75 1022.2
20260903123534 81 159 3.0 9.0 0.00 0.00 0.00 76 1022.2
20260903123036 81 119 3.0 9.0 0.00 0.00 0.00 77 1022.1
20260903122534 81 135 5.0 10.0 0.00 0.00 0.00 77 1022.2
20260903122034 81 147 3.0 10.0 0.00 0.00 0.00 77 1022.1
20260903121534 82 99 4.0 8.0 0.00 0.00 0.00 77 1022.2
20260903121034 82 138 3.0 13.0 0.00 0.00 0.00 77 1022.3
20260903120534 82 144 3.0 13.0 0.00 0.00 0.00 76 1022.3
20260903120034 82 106 4.0 13.0 0.00 0.00 0.00 76 1022.2
20260903115533 82 127 4.0 10.0 0.00 0.00 0.00 76 1022.3
20260903115032 82 115 4.0 9.0 0.00 0.00 0.00 78 1022.2
20260903114531 82 131 4.0 12.0 0.00 0.00 0.00 78 1022.2
20260903114032 81 133 3.0 12.0 0.00 0.00 0.00 78 1022.3
20260903113531 81 190 5.0 12.0 0.00 0.00 0.00 78 1022.3
20260903113030 81 134 6.0 11.0 0.00 0.00 0.00 78 1022.5
20260903112529 81 141 5.0 15.0 0.00 0.00 0.00 78 1022.4
20260903112029 81 123 7.0 15.0 0.00 0.00 0.00 78 1022.5
20260903111528 81 122 7.0 12.0 0.00 0.00 0.00 78 1022.4
20260903111028 81 121 5.0 10.0 0.00 0.00 0.00 77 1022.4
20260903110527 81 111 5.0 10.0 0.00 0.00 0.00 78 1022.6
20260903110027 81 137 4.0 12.0 0.00 0.00 0.00 77 1022.6
20260903105526 81 130 6.0 12.0 0.00 0.00 0.00 77 1022.5
20260903105026 82 110 5.0 12.0 0.00 0.00 0.00 77 1022.6
20260903104525 82 125 3.0 11.0 0.00 0.00 0.00 77 1022.6
20260903104026 82 148 3.0 9.0 0.00 0.00 0.00 77 1022.7
20260903103524 83 107 5.0 9.0 0.00 0.00 0.00 76 1022.6
20260903103024 82 109 3.0 9.0 0.00 0.00 0.00 77 1022.6
20260903102524 82 135 3.0 10.0 0.00 0.00 0.00 76 1022.6
20260903101521 82 123 4.0 8.0 0.00 0.00 0.00 76 1022.6
20260903101022 82 83 3.0 8.0 0.00 0.00 0.00 76 1022.6
20260903100520 82 113 4.0 8.0 0.00 0.00 0.00 77 1022.7
20260903100022 82 101 3.0 9.0 0.00 0.00 0.00 78 1022.7
20260903095522 81 104 1.0 9.0 0.00 0.00 0.00 79 1022.7
20260903095017 81 109 5.0 8.0 0.00 0.00 0.00 78 1022.8
20260903094517 81 119 3.0 8.0 0.00 0.00 0.00 79 1022.7
20260903094016 80 113 2.0 6.0 0.00 0.00 0.00 81 1022.6
20260903093514 80 96 1.0 7.0 0.00 0.00 0.00 81 1022.5
20260903093014 80 140 1.0 8.0 0.00 0.00 0.00 81 1022.5
20260903092519 79 122 4.0 8.0 0.00 0.00 0.00 81 1022.6
20260903092016 80 128 4.0 8.0 0.00 0.00 0.00 81 1022.4
20260903091517 80 116 2.0 9.0 0.00 0.00 0.00 80 1022.5
20260903091013 80 113 5.0 9.0 0.00 0.00 0.00 80 1022.5
20260903090514 80 183 3.0 7.0 0.00 0.00 0.00 79 1022.6
20260903090017 81 118 3.0 7.0 0.00 0.00 0.00 78 1022.5
20260903085511 81 78 1.0 8.0 0.00 0.00 0.00 78 1022.5
20260903085014 81 123 5.0 8.0 0.00 0.00 0.00 77 1022.5
20260903084523 81 103 3.0 8.0 0.00 0.00 0.00 77 1022.4
20260903084009 82 136 2.0 8.0 0.00 0.00 0.00 77 1022.3
20260903083508 81 101 3.0 7.0 0.00 0.00 0.00 76 1022.1
20260903083006 81 111 3.0 7.0 0.00 0.00 0.00 75 1022.1
20260903082505 81 101 2.0 5.0 0.00 0.00 0.00 76 1022.1
20260903082004 81 126 3.0 5.0 0.00 0.00 0.00 76 1022.1
20260903081503 81 122 3.0 6.0 0.00 0.00 0.00 76 1022.0
20260903081003 80 100 1.0 3.0 0.00 0.00 0.00 76 1021.9
20260903080600 80 98 1.0 3.0 0.00 0.00 0.00 76 1021.9
20260903080059 80 105 1.0 4.0 0.00 0.00 0.00 76 1021.9
20260903075559 80 111 1.0 4.0 0.00 0.00 0.00 77 1021.9
20260903075055 79 76 0.0 4.0 0.00 0.00 0.00 77 1021.8
20260903074557 79 65 0.0 2.0 0.00 0.00 0.00 77 1021.8
20260903074053 78 63 0.0 2.0 0.00 0.00 0.00 78 1021.7
20260903073551 78 62 0.0 0.0 0.00 0.00 0.00 78 1021.6
20260903073050 78 61 0.0 2.0 0.00 0.00 0.00 78 1021.5
20260903072548 78 62 0.0 2.0 0.00 0.00 0.00 79 1021.4
20260903072047 77 62 0.0 2.0 0.00 0.00 0.00 80 1021.4
20260903071548 76 62 0.0 1.0 0.00 0.00 0.00 79 1021.4
20260903071044 76 62 0.0 2.0 0.00 0.00 0.00 79 1021.4
20260903070542 75 5 0.0 2.0 0.00 0.00 0.00 78 1021.4
20260903070041 75 9 0.0 2.0 0.00 0.00 0.00 77 1021.1
20260903065540 74 360 0.0 3.0 0.00 0.00 0.00 77 1021.0
20260903065038 74 360 1.0 4.0 0.00 0.00 0.00 77 1020.9
20260903064537 74 360 2.0 4.0 0.00 0.00 0.00 77 1020.9
20260903064036 74 15 1.0 3.0 0.00 0.00 0.00 77 1020.9
20260903063537 75 15 0.0 0.0 0.00 0.00 0.00 79 1020.9
20260903063034 74 15 0.0 0.0 0.00 0.00 0.00 77 1020.8
20260903062533 74 348 0.0 1.0 0.00 0.00 0.00 74 1020.7
20260903062033 74 348 0.0 4.0 0.00 0.00 0.00 70 1020.6
20260903061537 74 348 1.0 6.0 0.00 0.00 0.00 69 1020.4
20260903061032 74 336 2.0 6.0 0.00 0.00 0.00 69 1020.3
20260903060530 74 350 2.0 6.0 0.00 0.00 0.00 71 1020.0
20260903060038 74 10 1.0 2.0 0.00 0.00 0.00 73 1020.0
20260903055529 74 10 0.0 2.0 0.00 0.00 0.00 75 1020.0
20260903055030 74 10 0.0 2.0 0.00 0.00 0.00 74 1019.9
20260903054527 74 10 0.0 4.0 0.00 0.00 0.00 71 1019.9
20260903054028 74 9 1.0 5.0 0.00 0.00 0.00 71 1019.8
20260903053530 74 360 2.0 5.0 0.00 0.00 0.00 71 1019.7
20260903053031 74 347 1.0 6.0 0.00 0.00 0.00 72 1019.7
20260903052626 74 315 3.0 6.0 0.00 0.00 0.00 72 1019.8
20260903052025 74 333 3.0 6.0 0.00 0.00 0.00 75 1019.9
20260903051524 74 355 1.0 6.0 0.00 0.00 0.00 76 1019.8
20260903051023 74 360 3.0 6.0 0.00 0.00 0.00 76 1019.9
20260903050523 75 355 2.0 5.0 0.00 0.00 0.00 81 1019.8
20260903050029 74 326 2.0 5.0 0.00 0.00 0.00 79 1019.8
20260903045524 74 330 1.0 3.0 0.00 0.00 0.00 77 1019.7
20260903045022 74 328 0.0 2.0 0.00 0.00 0.00 78 1019.8
20260903044522 75 328 0.0 0.0 0.00 0.00 0.00 79 1019.9
20260903044122 75 328 0.0 1.0 0.00 0.00 0.00 79 1020.0
20260903043525 75 325 0.0 2.0 0.00 0.00 0.00 78 1019.9
20260903043031 75 324 0.0 2.0 0.00 0.00 0.00 76 1019.8
20260903042521 75 324 0.0 2.0 0.00 0.00 0.00 77 1019.8
20260903042027 75 324 0.0 4.0 0.00 0.00 0.00 76 1019.7
20260903041529 75 327 1.0 5.0 0.00 0.00 0.00 76 1019.7
20260903041020 74 338 2.0 7.0 0.00 0.00 0.00 77 1019.8
20260903040520 74 355 3.0 7.0 0.00 0.00 0.00 78 1019.9
20260903040019 74 322 4.0 9.0 0.00 0.00 0.00 79 1019.9
20260903035519 74 14 5.0 9.0 0.00 0.00 0.00 80 1019.9
20260903035017 74 24 2.0 8.0 0.00 0.00 0.00 81 1020.1
20260903034515 74 347 3.0 8.0 0.00 0.00 0.00 81 1020.3
20260903034014 74 346 5.0 8.0 0.00 0.00 0.00 80 1020.4
20260903033514 74 344 4.0 6.0 0.00 0.00 0.00 80 1020.5
20260903033014 74 350 2.0 5.0 0.00 0.00 0.00 81 1020.6
20260903032515 74 346 2.0 5.0 0.00 0.00 0.00 80 1020.7
20260903032013 74 343 3.0 5.0 0.00 0.00 0.00 80 1020.6
20260903031512 74 350 2.0 6.0 0.00 0.00 0.00 80 1020.6
20260903031011 75 344 3.0 6.0 0.00 0.00 0.00 80 1020.6
20260903030511 75 345 2.0 5.0 0.00 0.00 0.00 80 1020.4
20260903030011 75 330 2.0 5.0 0.00 0.00 0.00 80 1020.5
20260903025610 75 327 3.0 5.0 0.00 0.00 0.00 80 1020.5
20260903025010 75 325 2.0 6.0 0.00 0.00 0.00 81 1020.4
20260903024510 75 331 3.0 6.0 0.00 0.00 0.00 81 1020.5
20260903024009 75 319 2.0 5.0 0.00 0.00 0.00 80 1020.5
20260903023512 75 349 3.0 4.0 0.00 0.00 0.00 81 1020.5
20260903023015 75 338 1.0 5.0 0.00 0.00 0.00 81 1020.6
20260903022508 75 348 2.0 5.0 0.00 0.00 0.00 81 1020.6
20260903022008 75 340 3.0 5.0 0.00 0.00 0.00 81 1020.5
20260903021511 75 331 0.0 3.0 0.00 0.00 0.00 81 1020.7
20260903021007 75 340 0.0 4.0 0.00 0.00 0.00 79 1020.6
20260903020508 75 325 1.0 4.0 0.00 0.00 0.00 80 1020.5
20260903020008 75 347 1.0 5.0 0.00 0.00 0.00 80 1020.5
20260903015507 75 350 3.0 6.0 0.00 0.00 0.00 80 1020.5
20260903015006 75 339 3.0 6.0 0.00 0.00 0.00 80 1020.5
20260903014507 75 350 3.0 6.0 0.00 0.00 0.00 80 1020.4
20260903014006 75 9 3.0 6.0 0.00 0.00 0.00 80 1020.5
20260903013506 75 337 4.0 6.0 0.00 0.00 0.00 80 1020.3
20260903013006 75 355 4.0 8.0 0.00 0.00 0.00 80 1020.5
20260903012505 75 355 4.0 8.0 0.00 0.00 0.00 80 1020.6
20260903012005 75 312 3.0 8.0 0.00 0.00 0.00 80 1020.7
20260903011505 75 344 5.0 8.0 0.00 0.00 0.00 81 1020.8
20260903011005 75 345 4.0 8.0 0.00 0.00 0.00 81 1020.8
20260903010507 75 350 5.0 9.0 0.00 0.00 0.00 81 1020.9
20260903010006 75 346 4.0 9.0 0.00 0.00 0.00 81 1021.1
20260903005504 75 351 4.0 8.0 0.00 0.00 0.00 81 1021.2
20260903005003 75 5 3.0 6.0 0.00 0.00 0.00 81 1021.5
20260903004509 75 5 4.0 6.0 0.00 0.00 0.00 81 1021.5
20260903004002 75 343 3.0 6.0 0.00 0.00 0.00 81 1021.7
20260903003502 75 329 3.0 5.0 0.00 0.00 0.00 81 1021.6
20260903003002 75 333 2.0 4.0 0.00 0.00 0.00 81 1021.7
20260903002501 75 342 2.0 4.0 0.00 0.00 0.00 81 1021.7
20260903002001 75 360 0.0 4.0 0.00 0.00 0.00 81 1021.7
20260903001504 75 360 1.0 5.0 0.00 0.00 0.00 81 1021.7
20260903001101 75 350 2.0 5.0 0.00 0.00 0.00 81 1021.6
20260903000600 75 355 2.0 4.0 0.00 0.00 0.00 82 1021.6
20260902235559 75 281 1.0 3.0 0.00 0.00 0.00 81 1021.7
20260902235057 75 302 0.0 5.0 0.00 0.00 0.00 81 1021.5
20260902234656 75 337 1.0 5.0 0.00 0.00 0.00 81 1021.5
20260902234057 75 355 2.0 5.0 0.00 0.00 0.00 80 1021.5
20260902233555 75 351 2.0 5.0 0.00 0.00 0.00 80 1021.4
20260902233055 76 5 2.0 4.0 0.00 0.00 0.00 80 1021.5
20260902232554 76 360 1.0 5.0 0.00 0.00 0.00 80 1021.5
20260902232052 76 360 2.0 5.0 0.00 0.00 0.00 80 1021.4
20260902231552 76 5 3.0 5.0 0.00 0.00 0.00 80 1021.3
20260902231052 76 355 1.0 4.0 0.00 0.00 0.00 80 1021.2
20260902230550 76 355 0.0 3.0 0.00 0.00 0.00 80 1021.2
20260902230050 76 355 1.0 4.0 0.00 0.00 0.00 80 1020.9
20260902225549 76 355 2.0 4.0 0.00 0.00 0.00 79 1020.9
20260902225049 76 360 1.0 5.0 0.00 0.00 0.00 79 1020.7
20260902224548 76 329 3.0 5.0 0.00 0.00 0.00 79 1020.6
20260902224047 76 355 2.0 4.0 0.00 0.00 0.00 79 1020.6
20260902223547 76 355 1.0 4.0 0.00 0.00 0.00 79 1020.6
20260902223047 76 5 2.0 8.0 0.00 0.00 0.00 79 1020.4
20260902222549 77 355 4.0 8.0 0.00 0.00 0.00 79 1020.3
20260902222045 77 26 4.0 8.0 0.00 0.00 0.00 79 1020.4
20260902221545 77 355 4.0 8.0 0.00 0.00 0.00 79 1020.5
20260902221047 77 19 5.0 8.0 0.00 0.00 0.00 79 1020.5
20260902220545 77 28 3.0 6.0 0.00 0.00 0.00 79 1020.5
20260902220047 77 355 4.0 6.0 0.00 0.00 0.00 79 1020.6
20260902215544 77 346 3.0 6.0 0.00 0.00 0.00 79 1020.7
20260902215043 77 360 4.0 6.0 0.00 0.00 0.00 79 1020.7
20260902214643 77 5 4.0 6.0 0.00 0.00 0.00 79 1020.7
20260902214043 77 355 4.0 6.0 0.00 0.00 0.00 79 1020.6
20260902213544 77 360 3.0 6.0 0.00 0.00 0.00 79 1020.8
20260902213042 77 360 4.0 6.0 0.00 0.00 0.00 79 1020.7
20260902212542 77 360 3.0 6.0 0.00 0.00 0.00 79 1020.8
20260902212042 77 5 3.0 6.0 0.00 0.00 0.00 79 1020.8
20260902211551 77 360 4.0 6.0 0.00 0.00 0.00 79 1020.7
20260902211042 77 340 4.0 6.0 0.00 0.00 0.00 79 1020.7
20260902210542 77 360 4.0 6.0 0.00 0.00 0.00 78 1020.7
20260902210108 77 355 3.0 6.0 0.00 0.00 0.00 78 1020.6
20260902205542 77 360 2.0 5.0 0.00 0.00 0.00 78 1020.6
20260902205042 77 355 1.0 5.0 0.00 0.00 0.00 78 1020.7
20260902204543 77 329 2.0 4.0 0.00 0.00 0.00 78 1020.7